User: anonymous   Login
Location: Leeds
(37.2390°N, 113.3580°W)
Time: 21:32:46
(UTC-07:00)
Language:

SL-08 RB Rocket - Orbit

View from above orbital plane
View from above orbital plane
View from above satellite
View from above satellite

Ground track
Ground track

The orbit data is extracted from the following two-line orbital elements,

1 26387U 00033D   17052.85689956  .00000095  00000-0  24812-4 0  9998
2 26387  97.9855 120.0157 0026061 346.5955 126.2523 14.68240855890954
Epoch (UTC): 21 February 2017 20:33:56
Eccentricity: 0.0026061
inclination: 97.9855°
perigee height: 648 km
apogee height: 685 km
right ascension of ascending node: 120.0157°
argument of perigee: 346.5955°
revolutions per day: 14.68240855
mean anomaly at epoch: 126.2523°
orbit number at epoch: 89095

The dashed part of the orbit path shows where the satellite is in the earth's shadow,  

DLR